Hilo, HI

7:12 PM HST on June 26, 2017 (GMT -1000)
Hilo International

Weather History for PHTO - March, 2011

Change the Weather History Date:

Friday, March 25, 2011

  Actual Average Record
Temperature  
Mean Temperature 72 °F 72 °F  
Max Temperature 78 °F 79 °F 85 °F (2005)
Min Temperature 65 °F 65 °F 59 °F (1979)
Degree Days  
Heating Degree Days 0 0  
Month to date heating degree days 0 0  
Since 1 July heating degree days 0 0  
Cooling Degree Days 7 7  
Month to date cooling degree days 204 172  
Year to date cooling degree days 636 542  
Growing Degree Days 22 (Base 50)    
Moisture  
Dew Point 63 °F    
Average Humidity 75    
Maximum Humidity 93    
Minimum Humidity 56    
Precipitation  
Precipitation 0.08 in 0.43 in 2.33 in (1980)
Month to date precipitation 6.37 10.74  
Year to date precipitation 14.20 29.56  
Snow  
Snow 0.00 in - - ()
Month to date snowfall 0.0  
Since 1 July snowfall 0.0  
Snow Depth 0.00 in    
Sea Level Pressure  
Sea Level Pressure 30.12 in    
Wind  
Wind Speed 8 mph (South)    
Max Wind Speed 21 mph    
Max Gust Speed 24 mph    
Visibility 10 miles    
Events Rain    
T = Trace of Precipitation, MM = Missing Value Source: NWS Daily Summary

Daily Weather History Graph

Daily Weather History Graph

Search for Another Location

Airport or City:

Trip Planner

Search our weather history database for the weather conditions in past years. The results will help you decide how hot, cold, wet, or windy it might be!

Date:

Astronomy

Mar. 25, 2011 Rise Set
Actual Time 6:19 AM HST 6:32 PM HST
Civil Twilight 5:58 AM HST 6:54 PM HST
Nautical Twilight 5:32 AM HST 7:20 PM HST
Astronomical Twilight 5:06 AM HST 7:45 PM HST
Moon 12:08 AM HST (3/25) 11:20 AM HST (3/25)
Length of Visible Light 12h 56m
Length of Day
12h 12m
Waning Gibbous, 56% of the Moon is Illuminated
Mar 25
Waning Gibbous
Mar 26
Last Quarter
Apr 3
New
Apr 11
First Quarter
Apr 17
Full

Hourly Weather History & Observations

Time (HST) Temp. Dew Point Humidity Pressure Visibility Wind Dir Wind Speed Gust Speed Precip Events Conditions
12:53 AM 72.0 °F 62.1 °F 71% 30.12 in 10.0 mi East 10.4 mph - N/A   Scattered Clouds
1:53 AM 68.0 °F 63.0 °F 84% 30.12 in 10.0 mi Calm Calm - N/A   Mostly Cloudy
2:53 AM 66.9 °F 63.0 °F 87% 30.09 in 10.0 mi WSW 6.9 mph - N/A   Mostly Cloudy
3:03 AM 66.2 °F 62.6 °F 88% 30.09 in 10.0 mi SW 3.5 mph - N/A   Overcast
3:53 AM 68.0 °F 63.0 °F 84% 30.08 in 10.0 mi WSW 6.9 mph - N/A   Overcast
4:53 AM 68.0 °F 64.0 °F 87% 30.09 in 10.0 mi WSW 4.6 mph - N/A   Mostly Cloudy
5:11 AM 68.0 °F 64.4 °F 88% 30.10 in 10.0 mi WSW 4.6 mph - N/A   Mostly Cloudy
5:53 AM 68.0 °F 63.0 °F 84% 30.10 in 10.0 mi WSW 3.5 mph - N/A   Overcast
6:14 AM 68.0 °F 64.4 °F 88% 30.11 in 10.0 mi WSW 4.6 mph - N/A   Overcast
6:53 AM 69.1 °F 64.0 °F 84% 30.12 in 10.0 mi WSW 4.6 mph - N/A   Mostly Cloudy
7:32 AM 71.6 °F 64.4 °F 78% 30.13 in 10.0 mi West 5.8 mph - N/A   Overcast
7:53 AM 73.0 °F 64.0 °F 73% 30.14 in 10.0 mi Variable 4.6 mph - N/A   Overcast
8:33 AM 77.0 °F 64.4 °F 65% 30.15 in 10.0 mi East 15.0 mph 20.7 mph N/A   Mostly Cloudy
8:53 AM 75.9 °F 64.0 °F 67% 30.14 in 10.0 mi ESE 16.1 mph - N/A   Mostly Cloudy
9:53 AM 75.9 °F 63.0 °F 64% 30.14 in 10.0 mi East 15.0 mph 23.0 mph N/A   Mostly Cloudy
10:53 AM 75.9 °F 63.0 °F 64% 30.14 in 10.0 mi East 15.0 mph 21.9 mph N/A   Overcast
11:53 AM 78.1 °F 62.1 °F 58% 30.13 in 10.0 mi East 15.0 mph - N/A   Mostly Cloudy
12:53 PM 75.9 °F 62.1 °F 62% 30.11 in 10.0 mi East 11.5 mph 19.6 mph N/A   Mostly Cloudy
1:53 PM 77.0 °F 62.1 °F 60% 30.08 in 10.0 mi East 10.4 mph - N/A   Mostly Cloudy
2:53 PM 77.0 °F 61.0 °F 58% 30.07 in 10.0 mi ENE 9.2 mph - N/A   Overcast
3:53 PM 75.9 °F 63.0 °F 64% 30.07 in 10.0 mi ENE 9.2 mph - N/A   Mostly Cloudy
4:53 PM 75.9 °F 60.1 °F 58% 30.08 in 10.0 mi NNE 8.1 mph - N/A   Overcast
5:53 PM 73.9 °F 61.0 °F 64% 30.09 in 10.0 mi NE 5.8 mph - N/A   Mostly Cloudy
6:53 PM 72.0 °F 62.1 °F 71% 30.11 in 10.0 mi NE 3.5 mph - N/A   Partly Cloudy
7:53 PM 68.0 °F 63.0 °F 84% 30.13 in 10.0 mi WSW 4.6 mph - N/A   Scattered Clouds
8:53 PM 66.9 °F 64.0 °F 90% 30.15 in 10.0 mi SSW 5.8 mph - 0.07 in Rain Light Rain
9:53 PM 66.0 °F 63.0 °F 90% 30.16 in 10.0 mi SW 5.8 mph - 0.00 in   Partly Cloudy
10:53 PM 66.0 °F 62.1 °F 87% 30.15 in 10.0 mi SSW 6.9 mph - 0.00 in Rain Light Rain
11:05 PM 66.2 °F 60.8 °F 83% 30.15 in 10.0 mi WSW 6.9 mph - 0.01 in Rain Light Rain
11:53 PM 66.0 °F 61.0 °F 84% 30.14 in 10.0 mi WSW 4.6 mph - 0.01 in   Overcast